User: anonymous
Location: Irma
(52.9170°N, 111.2330°W)
Time: 19:33:09
(UTC-06:00)
Language:

Meteor 1-24 Rocket - Orbit

View from above orbital plane
View from above orbital plane
View from above satellite
View from above satellite

Ground track
Ground track

The orbit data is extracted from the following two-line orbital elements,

1 08800U 76032B   14234.11561021  .00000092  00000-0  43703-4 0   897
2 08800 081.2529 139.3321 0094637 221.4697 250.3701 14.09963224973026
Epoch (UTC): 22 August 2014 02:46:28
Eccentricity: 0.0094637
inclination: 81.2529°
perigee height: 791 km
apogee height: 928 km
right ascension of ascending node: 139.3321°
argument of perigee: 221.4697°
revolutions per day: 14.09963224
mean anomaly at epoch: 250.3701°
orbit number at epoch: 97302

The dashed part of the orbit path shows where the satellite is in the earth's shadow,  

DLR